Weather in Khoe

Russia / Sakhalin District     51°19′11″N   142°10′52″E
temp.,
°C
wind,
m/s
gust,
m/s
humid.,
%
clouds,
%
prec.,
mm/h
press.,
hPa
HPBL,
m
13 april, tue
tue1323:00−2e3595100 11.8 1012198
02:00−3e3397100 1.9 1011153
05:00−3e3497100 3.9 1010167
08:00−3e3696100 2.3 1008253
11:00−3e4895100 6.9 1006302
14:00−1e4794100 3.3 1004298
17:00−1e3897100 5.5 1000296
20:00−1e3898100 5.9 997289
14 april, wed
wed1423:00−2e3597100 10.6 994165
02:00−1ene2497100 1.3 990133
05:00−1wnw2399100 4.8 987178
08:00−4w81196100 1.9 990776
11:00−5w81189100 3.0 993833
14:00−4w71279100 0.3 9941424
17:00−4wsw6985100 0.6 9961209
20:00−5w6107699 1.1 998914
15 april, thu
thu1523:00−7w8127591 1.1 1001957
02:00−8w81175100 0.0 1003970
05:00−7w697699 0.3 1004792
08:00−6wsw3681100 0.0 1006606
11:00−3sw61075100 0.1 10081298
14:00−1sw688194 0.1 10101135
17:00−1sw577543 0.1 1012731
20:00−3sw37875 0.0 1015185
16 april, fri
fri1623:00−7s259519 0.0 101880
02:00−8sse229748 0.0 101948
05:00−8se33945 0.0 102051
08:00−5se23895 0.0 102075
11:00+1s25884 0.0 1021519
14:00+3sse248827 0.0 1020705
17:00+4ese1282100 0.0 1019472
20:00+1ene1196100 0.0 101914
17 april, sat
sat1723:00−1ese229233 0.0 101834
02:00−2ese3591100 0.0 101797
05:000ese3592100 0.0 1015132
08:00+1ese359043 0.0 1014143
11:00+4ese348999 0.0 1013243
14:00+3se3496100 0.0 1012126
17:00+5ese399472 0.1 1010485
20:00+2e119953 0.0 101020